Simultaneous Nadir Overpasses (SNOs) Predictions

Prediction of SNOs between AQUA and METOP-B Satellite Orbit:

Table of predicted SNOs for the next 14.0 days since TLE Epoch: 6/11/2022
Index Date (AQUA) Time (AQUA) Lat,Lon (AQUA) SZA (AQUA ) Date (METOP-B) Time (METOP-B) Lat,Lon (METOP-B) SZA (METOP-B ) Distance(km) Time Diff (sec)
1 06/11/2022 23:15:16 -73.94, 5.77 129.21 06/11/2022 23:14:48 -73.93, 5.70 129.21 2.56 28
2 06/12/2022 00:04:45 74.03, 173.19 50.90 06/12/2022 00:05:26 74.01, 173.23 50.87 3.29 41
3 06/14/2022 17:59:34 73.93, -95.28 50.64 06/14/2022 17:58:28 73.93, -95.21 50.65 2.01 66
4 06/14/2022 18:49:00 -73.97, 72.28 129.32 06/14/2022 18:49:09 -73.98, 72.24 129.31 1.80 9
5 06/14/2022 19:38:32 74.22,-120.67 50.95 06/14/2022 19:39:43 74.26,-119.75 50.95 28.18 71
6 06/17/2022 13:33:18 73.93, -28.70 50.55 06/17/2022 13:32:51 73.93, -28.82 50.55 3.51 27
7 06/17/2022 14:22:45 -74.02, 138.74 129.36 06/17/2022 14:23:31 -74.03, 138.77 129.36 1.63 46
8 06/20/2022 08:17:34 -73.90,-129.69 129.53 06/20/2022 08:16:35 -73.90,-129.81 129.52 3.62 59
9 06/20/2022 09:07:03 74.01, 37.71 50.58 06/20/2022 09:07:12 74.02, 37.81 50.59 3.44 9
10 06/20/2022 09:56:37 -74.45,-155.69 128.94 06/20/2022 09:57:45 -74.47,-153.72 128.99 58.76 68
11 06/23/2022 03:51:17 -73.94, -63.19 129.48 06/23/2022 03:50:56 -73.95, -63.30 129.47 3.39 21
12 06/23/2022 04:40:46 74.05, 104.20 50.64 06/23/2022 04:41:33 74.06, 104.31 50.64 3.55 47



Historial Predications of SNOs between AQUA and METOP-B
